COSMOS 1703

Satellite information

Favourite Embed

Satellite Type and Status

PAYLOADIN ORBIT

Key statistics

Satellite COSMOS 1703 at a glance.

Uptime

14473

Days in orbit

Revolutions

≈ 15.4

Per day

Orbit

LEO

Low Earth Orbit

Inclination

82.5

Latest

Satellite identification and parameters

Extended collection of information and parameters for COSMOS 1703.

Object identification

Identified? True

Debris? False

Object name: COSMOS 1703

International designator: 1985-108A

Object number (NORAD): 16262

Object ID (CCSDS): 16262

Country: COMMONWEALTH OF INDEPENDENT STATES (CIS)

Current information (Y/N): Y

RCS size: LARGE

Orbital parameters

Period: 93.547 minutes

Inclination: 82.4628 deg

SMA: 6826.203 km

Apoapsis: 453.664 km

Periapsis: 442.471 km

RAAN: 215.469 deg

Eccentricy: 0.0008199

Argument of periapsis: 150.4408 deg

Mean anomaly: 209.7303 deg

Mean motion: 15.39338026 rev/day

Mean motion (dot): 0.00010485 rev/day2

B* drag term: 0.00026739 1/REarth

Two-line elements (TLE)

Creation date: July 8, 2025, 2:27 a.m.

Reference frame: TEME

Reference center: EARTH

Epoch: July 7, 2025, 7:38 p.m. UTC

TLE line 0: 0 COSMOS 1703

TLE line 1: 1 16262U 85108A 25188.81820575 .00010485 00000-0 26739-3 0 9997

TLE line 2: 2 16262 82.4628 215.4690 0008199 150.4408 209.7303 15.39338026164235

Live tracking on map

Real-time ground track for satellite COSMOS 1703.

In-orbit conjunctions

A list of the most updated potential collisions computed for object COSMOS 1703.

Target Orbit TCA Probability of collision Miss distance Type
OBJECT E SSO 2025-03-21 23:10:21 0.0002715149 229.0 (m) UNKNOWN
H-2A DEB LEO 2024-08-06 10:52:25 0.000177009 466.0 (m) DEBRIS

Associated space launch

Tselina-D satellites provided detailed observation of radio sources detected by the smaller Tselina-O satellites as part of the Tselina ELINT system.

COSMOS 1703 was lifted into orbit during the mission ‘Tsiklon-3 | Tselina-D 51’, on board a Tsiklon-3 space rocket.

The launch took place on Nov. 22, 1985, 10:20 p.m. from 32/2.

For more information about the launch, click the button.

Launch to space Tsiklon-3 | Tselina-D 51
Tsiklon-3 | Tselina-D 51

Agency: N/A

Status: Launch Successful

Launch date: Nov. 22, 1985, 10:20 p.m. UTC

Rocket: Tsiklon-3

Launch pad: 32/2

Location: Plesetsk Cosmodrome, Russian Federation

...

Latest news about this satellite

There are no fresh news available about this satellite. Check back as we update our databases every day.


Newsletter sign-up

Weekly statistics, charts and insights to help you stay on top of the space industry.